Weather History for Huntsville Madison, AL

Change the Weather History Date:

Sunday, January 1, 2012

  Actual Average (KHSV) Record (KHSV)
Temperature  
Mean Temperature 52 °F 42 °F  
Max Temperature 62 °F 51 °F 79 °F (1952)
Min Temperature 39 °F 32 °F 7 °F (1977)
Degree Days  
Heating Degree Days 13 24  
Month to date heating degree days 24  
Since 1 July heating degree days 1205  
Cooling Degree Days 0 0  
Month to date cooling degree days 0  
Year to date cooling degree days 0  
Growing Degree Days 2 (Base 50)    
Moisture  
Dew Point 42 °F    
Average Humidity 65    
Maximum Humidity 94    
Minimum Humidity 41    
Precipitation  
Precipitation 0.00 in 0.16 in 3.48 in (2011)
Month to date precipitation 0.16  
Year to date precipitation 0.16  
Snow  
Snow 0.00 in - - ()
Month to date snowfall  
Since 1 July snowfall  
Snow Depth -    
Sea Level Pressure  
Sea Level Pressure 30.12 in    
Wind  
Wind Speed 10 mph (West)    
Max Wind Speed 21 mph    
Max Gust Speed 31 mph    
Visibility 10 miles    
Events Rain    
T = Trace of Precipitation, MM = Missing Value Source: NWS Daily Summary

Daily Weather History Graph

Daily Weather History Graph

Search for Another Location

Airport:

Trip Planner

Search our weather history database for the weather conditions in past years. The results will help you decide how hot, cold, wet, or windy it might be!

Date:

Astronomy

Jan. 01, 2012 Rise Set
Actual Time 6:53 AM CST 4:45 PM CST
Civil Twilight 6:25 AM CST 5:13 PM CST
Nautical Twilight 5:54 AM CST 5:45 PM CST
Astronomical Twilight 5:23 AM CST 6:15 PM CST
Moon 11:25 AM CST (1/1) No Moon Set
Length of Visible Light 10h 47m
Length of Day
9h 51m
First Quarter, 55% of the Moon is Illuminated
Jan 1
First Quarter
Jan 9
Full
Jan 16
Last Quarter
Jan 23
New
Jan 30
First Quarter

Hourly Weather History & Observations

Time (CST) Temp. Windchill Dew Point Humidity Pressure Visibility Wind Dir Wind Speed Gust Speed Precip Events Conditions
12:15 AM 48.2 °F - 35.6 °F 62% 30.07 in 10.0 mi Calm Calm - N/A   Mostly Cloudy
12:35 AM 51.8 °F - 37.4 °F 58% 30.06 in 10.0 mi SSE 3.5 mph - N/A   Mostly Cloudy
12:55 AM 55.4 °F - 41.0 °F 58% 30.05 in 10.0 mi SSE 4.6 mph - N/A   Mostly Cloudy
1:15 AM 55.4 °F - 41.0 °F 58% 30.05 in 10.0 mi South 8.1 mph - N/A   Mostly Cloudy
1:35 AM 55.4 °F - 42.8 °F 63% 30.04 in 10.0 mi South 11.5 mph - N/A   Mostly Cloudy
2:15 AM 57.2 °F - 44.6 °F 63% 30.03 in 10.0 mi South 11.5 mph 16.1 mph N/A   Overcast
2:35 AM 55.4 °F - 50.0 °F 82% 30.04 in 7.0 mi South 12.7 mph 17.3 mph N/A Rain Light Rain
2:55 AM 55.4 °F - 50.0 °F 82% 30.03 in 10.0 mi South 10.4 mph - N/A   Overcast
3:15 AM 55.4 °F - 51.8 °F 88% 30.04 in 10.0 mi SSW 8.1 mph - N/A   Overcast
3:35 AM 55.4 °F - 51.8 °F 88% 30.03 in 10.0 mi South 11.5 mph - N/A   Overcast
3:55 AM 55.4 °F - 51.8 °F 88% 30.03 in 10.0 mi SSW 8.1 mph - N/A   Overcast
4:15 AM 57.2 °F - 53.6 °F 88% 30.02 in 10.0 mi South 9.2 mph - N/A   Overcast
4:35 AM 57.2 °F - 53.6 °F 88% 30.02 in 10.0 mi SSW 8.1 mph - N/A   Overcast
4:55 AM 59.0 °F - 55.4 °F 88% 30.01 in 10.0 mi SSW 12.7 mph 17.3 mph N/A   Overcast
5:15 AM 59.0 °F - 55.4 °F 88% 30.01 in 10.0 mi SSW 12.7 mph 18.4 mph N/A   Overcast
5:35 AM 59.0 °F - 55.4 °F 88% 30.01 in 10.0 mi SSW 13.8 mph 19.6 mph N/A   Overcast
5:55 AM 59.0 °F - 55.4 °F 88% 30.01 in 10.0 mi SSW 12.7 mph - N/A   Overcast
6:15 AM 59.0 °F - 55.4 °F 88% 30.01 in 10.0 mi SSW 11.5 mph - N/A   Overcast
6:35 AM 59.0 °F - 57.2 °F 94% 30.01 in 10.0 mi SSW 13.8 mph 19.6 mph N/A   Overcast
6:55 AM 59.0 °F - 57.2 °F 94% 30.01 in 10.0 mi SSW 13.8 mph 18.4 mph N/A   Overcast
7:15 AM 59.0 °F - 57.2 °F 94% 30.01 in 10.0 mi SSW 15.0 mph 18.4 mph N/A   Overcast
7:35 AM 60.8 °F - 57.2 °F 88% 30.02 in 10.0 mi SSW 12.7 mph 20.7 mph N/A   Overcast
8:15 AM 60.8 °F - 59.0 °F 94% 30.01 in 10.0 mi SSW 15.0 mph 21.9 mph N/A   Mostly Cloudy
8:35 AM 62.6 °F - 59.0 °F 88% 30.04 in 10.0 mi West 11.5 mph 29.9 mph N/A   Overcast
8:55 AM 60.8 °F - 57.2 °F 88% 30.06 in 10.0 mi West 15.0 mph 19.6 mph N/A   Overcast
9:15 AM 60.8 °F - 53.6 °F 77% 30.07 in 10.0 mi West 15.0 mph 20.7 mph N/A   Scattered Clouds
9:35 AM 62.6 °F - 53.6 °F 72% 30.08 in 10.0 mi West 16.1 mph 26.5 mph N/A   Clear
9:55 AM 62.6 °F - 50.0 °F 63% 30.09 in 10.0 mi West 20.7 mph 27.6 mph N/A   Scattered Clouds
10:15 AM 60.8 °F - 42.8 °F 52% 30.11 in 10.0 mi West 19.6 mph 31.1 mph N/A   Scattered Clouds
10:35 AM 60.8 °F - 41.0 °F 48% 30.11 in 10.0 mi WNW 19.6 mph 27.6 mph N/A   Clear
10:55 AM 60.8 °F - 39.2 °F 45% 30.12 in 10.0 mi NW 18.4 mph 26.5 mph N/A   Clear
11:15 AM 60.8 °F - 37.4 °F 42% 30.12 in 10.0 mi West 15.0 mph 24.2 mph N/A   Clear
11:55 AM 59.0 °F - 35.6 °F 42% 30.14 in 10.0 mi West 18.4 mph 26.5 mph N/A   Clear
12:15 PM 59.0 °F - 35.6 °F 42% 30.13 in 10.0 mi NW 17.3 mph 23.0 mph N/A   Clear
12:35 PM 57.2 °F - 35.6 °F 44% 30.12 in 10.0 mi WNW 15.0 mph 23.0 mph N/A   Clear
12:55 PM 57.2 °F - 35.6 °F 44% 30.12 in 10.0 mi NW 15.0 mph 21.9 mph N/A   Clear
1:15 PM 59.0 °F - 35.6 °F 42% 30.13 in 10.0 mi WNW 15.0 mph 24.2 mph N/A   Clear
1:35 PM 57.2 °F - 35.6 °F 44% 30.13 in 10.0 mi NW 16.1 mph 20.7 mph N/A   Clear
1:55 PM 57.2 °F - 35.6 °F 44% 30.14 in 10.0 mi NW 15.0 mph 21.9 mph N/A   Clear
2:15 PM 57.2 °F - 33.8 °F 41% 30.14 in 10.0 mi NW 13.8 mph 25.3 mph N/A   Clear
2:35 PM 57.2 °F - 33.8 °F 41% 30.15 in 10.0 mi NW 12.7 mph 20.7 mph N/A   Clear
2:55 PM 57.2 °F - 35.6 °F 44% 30.16 in 10.0 mi NW 16.1 mph 20.7 mph N/A   Clear
3:15 PM 55.4 °F - 35.6 °F 47% 30.17 in 10.0 mi WNW 12.7 mph 19.6 mph N/A   Clear
3:35 PM 55.4 °F - 35.6 °F 47% 30.18 in 10.0 mi WNW 15.0 mph 19.6 mph N/A   Clear
4:15 PM 53.6 °F - 33.8 °F 47% 30.20 in 10.0 mi WNW 11.5 mph 20.7 mph N/A   Clear
4:35 PM 51.8 °F - 28.4 °F 41% 30.22 in 10.0 mi NNW 13.8 mph 19.6 mph N/A   Clear
4:55 PM 50.0 °F - 30.2 °F 47% 30.22 in 10.0 mi NNW 9.2 mph - N/A   Clear
5:15 PM 46.4 °F 42.9 °F 32.0 °F 57% 30.23 in 10.0 mi NW 6.9 mph - N/A   Clear
5:35 PM 48.2 °F - 32.0 °F 54% 30.24 in 10.0 mi WNW 9.2 mph - N/A   Clear
5:55 PM 46.4 °F 42.4 °F 32.0 °F 57% 30.25 in 10.0 mi NW 8.1 mph - N/A   Clear
6:15 PM 46.4 °F 42.9 °F 32.0 °F 57% 30.26 in 10.0 mi NW 6.9 mph - N/A   Clear
6:35 PM 44.6 °F 40.7 °F 32.0 °F 61% 30.27 in 10.0 mi WNW 6.9 mph - N/A   Clear
6:55 PM 44.6 °F 40.7 °F 32.0 °F 61% 30.28 in 10.0 mi WNW 6.9 mph - N/A   Clear
7:15 PM 44.6 °F 41.4 °F 32.0 °F 61% 30.28 in 10.0 mi WNW 5.8 mph - N/A   Clear
7:35 PM 44.6 °F 40.7 °F 32.0 °F 61% 30.29 in 10.0 mi WNW 6.9 mph - N/A   Clear
7:55 PM 42.8 °F 38.6 °F 32.0 °F 66% 30.30 in 10.0 mi WNW 6.9 mph - N/A   Clear
8:15 PM 42.8 °F 38.6 °F 32.0 °F 66% 30.31 in 10.0 mi WNW 6.9 mph - N/A   Clear
8:35 PM 42.8 °F 39.3 °F 32.0 °F 66% 30.31 in 10.0 mi WNW 5.8 mph - N/A   Clear
8:55 PM 39.2 °F 35.9 °F 32.0 °F 75% 30.30 in 10.0 mi WNW 4.6 mph - N/A   Clear
9:15 PM 39.2 °F 37.0 °F 32.0 °F 75% 30.31 in 10.0 mi WNW 3.5 mph - N/A   Clear
9:35 PM 37.4 °F 33.8 °F 32.0 °F 81% 30.31 in 10.0 mi WNW 4.6 mph - N/A   Clear
9:55 PM 41.0 °F 38.0 °F 30.2 °F 65% 30.31 in 10.0 mi West 4.6 mph - N/A   Clear
10:15 PM 37.4 °F 33.8 °F 30.2 °F 75% 30.31 in 10.0 mi West 4.6 mph - N/A   Clear
10:35 PM 37.4 °F 32.8 °F 30.2 °F 75% 30.32 in 10.0 mi West 5.8 mph - N/A   Clear
10:55 PM 37.4 °F 32.1 °F 30.2 °F 75% 30.32 in 10.0 mi WNW 6.9 mph - N/A   Clear
11:35 PM 39.2 °F 33.0 °F 26.6 °F 61% 30.31 in 10.0 mi NW 9.2 mph - N/A   Clear